Other Surface Observations
Issued by NWS

Current Version | Previous Version | Text Only | Print | Product List | Glossary On
Versions: 1 2 3 4 5 6 7 8 9 10 11 12 13 14 15 16 17 18 19 20 21 22 23 24 25 26 27 28 29 30 31 32 33 34 35 36 37 38 39 40 41 42 43 44 45 46 47 48 49 50
000
SXUS52 KTAE 041118
OSOTAE
OSOTAE
North Florida/South Alabama/Southwest Georgia Weather Roundup
National Weather Service Tallahassee Florida
600 AM EST WED MAR 04 2015

Note: "fair" indicates few or no clouds below 12,000 feet with no
significant weather and/or obstructions to visibility.

!FLZ017-115-028-034-025-041200
...North Florida...

CITY           SKY/WX    TMP DP  RH WIND       PRES   REMARKS
TALLAHASSEE    FOG       63  61  93 CALM      30.11R VSB 1/4
APALACHICOLA   FOG       66  63  90 S7        30.09R VSB 1/4
PERRY          CLOUDY    64  64 100 SE3       30.11R
CROSS CITY       N/A     58  57  97 CALM      30.11R
JACKSONVILLE   PTCLDY    65  65 100 S7        30.12R
$$

!FLZ112-006-005-002-011-041200
...Florida Panhandle...

CITY           SKY/WX    TMP DP  RH WIND       PRES   REMARKS
MARIANNA       CLOUDY    61  61 100 S5        30.07S FOG
BONIFAY        FOG       62  62 100 S6        30.08R VSB 1/2
PANAMA CITY NW FOG       64  64 100 SE3       30.06S VSB 1/2
TYNDALL AFB    FOG       64  64 100 E2        30.08R VSB 1/2
TYND DRONE APT FOG       64  65 100 E5        30.08R VSB 3/8
DE FUNIAK SPR  FOG       63  63 100 S3        30.06R VSB 1/2
EGLIN AFB      FOG       63  62  96 SE5       30.04S VSB 1/4
DESTIN         FOG       63  63 100 SE6       30.05S VSB 1/2
HURLBURT       NOT AVBL
CRESTVIEW      CLOUDY    65  65 100 S5        30.06S FOG
PENSACOLA      FOG       65  64  97 SE6       30.03S VSB 1/4
$$

!ALZ063-066-041200
...South Alabama...

CITY           SKY/WX    TMP DP  RH WIND       PRES   REMARKS
DOTHAN         CLOUDY    62  61  96 SW6       30.10R
OZARK CAIRNS   CLOUDY    63  59  88 S7        30.07R
FT RUCKER HELI CLOUDY    63  61  93 SW3       30.06R
RUCKER HELI 3  CLOUDY    63  62  96 SW5       30.08R FOG
RUCKER HELI 2  CLOUDY    62  61  96 CALM      30.06R
FLORALA APT    CLOUDY    65  63  93 S6        30.07R
ANDALUSIA      CLOUDY    66  63  88 SW3       30.06S FOG
TROY           CLOUDY    63  60  90 S5        30.06S
EUFALA         CLOUDY    62  59  90 CALM      30.07R
MOBILE         CLOUDY    66  65  96 SE9       30.02S FOG
$$

!GAZ120>161-041200
...Southwest and South Central Georgia...

CITY           SKY/WX    TMP DP  RH WIND       PRES   REMARKS
THOMASVILLE    FOG       63 N/A N/A CALM      30.12R VSB 1/4
BAINBRIDGE     FOG       63  63 100 CALM      30.09R VSB 1
MOODY AFB      MOCLDY    61  59  94 SW2       30.09R
VALDOSTA       MOCLDY    61  60  97 CALM      30.11R FOG
MOULTRIE       FOG       63  63 100 CALM      30.11R VSB 1/2
BLAKELY        CLOUDY    63  63 100 SW3       30.09R
ALBANY         CLOUDY    61  61 100 SW5       30.11R FOG
TIFTON         CLOUDY    62  62 100 S6        30.10R FOG
FITZGERALD     FAIR      64  61  91 S5        30.11S
CORDELE        PTSUNNY   64  62  94 SW3       30.09S
AMERICUS       PTSUNNY   61  61 100 SW6       30.09R FOG
HOMERVILLE     FAIR      61  61 100 S3        30.11R FOG
$$

!GMZ750-755-770-775-041200
...Coastal and Buoy Obs...

STATION/POSITION TIME  TEMP    WIND        PRES    VSBY  WAVE
                       AIR SEA DIR/SP/G                  HT/PER
                 (UTC) (F)     (DEG/KT/KT) (MB)    (MI)  (FT/S)
KEATON BEACH     1100   65     120/  2/  3 1019.7R
CEDAR KEY        1000   65     150/  3/  4 1019.6R
C TOWER          1100   65     150/ 11/ 11 1018.7R
APALACHICOLA BUO 1100   68 68  140/  8/ 10 1018.9R         1/ 3
PANAMA CITY BUOY 1027   69 68  140/ 10/ 12 1017.9R         2/ 5
MOBILE BUOY      1004   71 71  140/ 14/ 16 1016.3          4/ 6
ORANGE BCH AL BU 1100   66 65  120/ 12/ 14 1015.7F         2/ 6
$$



USA.gov is the U.S. government's official web portal to all federal, state and local government web resources and services.